Location: Dos Palmas
(32.4468°N, 116.8732°W)
Time: 00:46:21
(UTC+00:00)

Meteor 2-6 Rocket - Pass Details

Date: 20 June 2021
Orbit: 805 x 915 km, 81.3° (Epoch: 01 August)

Event Time Altitude Azimuth Distance (km) Brightness Sun altitude
Rises 11:06:51 0° 350° (N) 3,522 7.9 -16.9°
Reaches altitude 10° 11:09:20 10° 350° (N) 2,565 7.1 -16.5°
Maximum altitude 11:15:11 81° 264° (W) 889 4.2 -15.6°
Drops below altitude 10° 11:20:49 10° 178° (S) 2,478 6.3 -14.7°
Enters shadow 11:22:05 - 177° (S) 2,963 6.7 -14.5°
